Location: New Paltz
(41.7500°N, 74.0833°W)
Time: 21:59:05
(UTC-05:00)

Daily predictions for brighter satellites

Satellite Brightness Start Highest point End
(mag) Time Altitude Azimuth Time Altitude Azimuth Time Altitude Azimuth
CZ-3A R/B 3.4 17:24:40 10° NW 17:29:50 37° NNE 17:34:30 10° E
Cosmos 2297 4.0 17:29:29 10° NNW 17:35:01 48° ENE 17:40:32 10° SE
SL-14 R/B 3.2 17:31:47 10° S 17:35:42 72° E 17:39:42 10° NNE
Cosmos 304 Rocket 4.1 17:33:02 10° S 17:37:38 47° ESE 17:42:14 10° NNE
Cosmos 1484 Rocket 3.0 17:34:04 10° SSE 17:37:54 51° ENE 17:41:48 10° N
Resurs 01 Rocket 3.5 17:37:20 10° ENE 17:38:11 10° ENE 17:39:00 10° NE
Cosmos 1340 Rocket 3.1 17:35:49 10° SSE 17:39:35 45° E 17:43:20 10° NNE
Cosmos 2279 Rocket 4.0 17:37:31 10° N 17:43:43 63° E 17:49:53 10° SSE
Meteor 1-28 Rocket 4.0 17:42:07 10° NE 17:45:26 29° E 17:48:43 10° SSE
Lacrosse 4 Rocket 2.7 17:42:38 10° N 17:45:37 19° NE 17:48:35 10° E
Cosmos 1151 Rocket 3.3 17:42:18 10° NNW 17:46:35 72° W 17:50:52 10° S
Cosmos 372 Rocket 4.2 17:46:13 10° NNW 17:51:18 75° WSW 17:56:23 10° SSE
IDEFIX/ARIANE 42P 3.8 17:47:24 10° S 17:52:24 47° W 17:57:29 10° NNW
Cosmos 540 Rocket 4.1 17:49:29 10° SSW 17:54:35 60° WNW 17:59:43 10° NNE
Aureole 2 Rocket 3.1 17:50:59 10° SSW 17:54:44 69° WNW 17:58:50 10° NNE
NOAA 12 4.4 17:54:40 10° SE 17:59:34 42° ENE 18:04:31 10° N
USA 215 3.7 17:53:55 10° E 18:00:02 44° NNE 18:06:11 10° NW
Cosmos 2058 3.1 17:57:33 10° SSW 18:01:38 76° W 18:05:45 10° N
Nadezhda 4 Rocket 4.3 17:57:31 10° SSE 18:03:26 46° E 18:09:25 10° NNE
ATLAS 5 CENTAUR R/B 4.2 18:01:45 10° N 18:04:00 12° NNE 18:05:48 11° NE
Cosmos 1805 Rocket 3.5 18:00:51 10° S 18:05:16 68° E 18:09:43 10° NNE
Lacrosse 5 3.9 18:02:37 10° NNW 18:05:17 14° N 18:07:58 10° NNE
SKYMED 2 3.5 18:02:59 10° NNE 18:07:21 84° E 18:11:42 10° SSW
Cosmos 2242 Rocket 4.3 18:03:27 10° NNE 18:07:21 30° ENE 18:11:15 10° SE
Cosmos 1461 2.9 18:04:08 10° SW 18:08:19 82° WNW 18:12:05 12° NNE
Cosmos 1900 4.3 18:03:21 10° NNW 18:08:20 86° ENE 18:13:22 10° SSE
Cosmos 2180 Rocket 4.5 18:06:35 10° N 18:12:47 87° E 18:19:02 10° S
Cosmos 1626 2.0 18:10:42 10° S 18:14:24 65° E 18:18:07 10° NNE
Aureole 1 Rocket 4.1 18:11:23 10° S 18:16:36 49° E 18:23:24 10° NNE
Sich 1 3.1 18:13:58 10° S 18:18:19 60° E 18:22:42 10° NNE
Cosmos 2219 Rocket 4.2 18:15:30 10° WSW 18:20:04 25° NW 18:24:41 10° N
Lacrosse 5 rocket 3.5 18:17:50 10° WNW 18:21:05 26° SW 18:24:26 10° S
Cosmos 1356 Rocket 3.2 18:17:42 10° S 18:21:41 78° E 18:25:41 10° NNE
Cosmos 1943 Rocket 4.2 18:20:51 10° NNE 18:21:11 10° NNE 18:21:11 10° NNE
ALOS 2.9 18:20:11 10° SE 18:24:20 33° ENE 18:28:29 10° N
Cosmos 1092 Rocket 4.2 18:19:42 10° SSE 18:25:46 50° E 18:31:52 10° NNE
Cosmos 2333 Rocket 4.0 18:22:03 10° WSW 18:26:51 28° NW 18:31:41 10° N
Cosmos 1603 4.1 18:22:05 10° S 18:27:15 39° ESE 18:30:06 23° NE
Cosmos 1633 Rocket 2.9 18:24:17 10° S 18:28:39 68° E 18:33:02 10° NNE
Cosmos 2278 Rocket 4.4 18:29:06 10° NW 18:33:48 27° WSW 18:38:28 10° SSW
Cosmos 292 Rocket 4.2 18:29:51 10° S 18:34:15 39° ESE 18:35:32 33° ENE
Coronas F rocket 2.6 18:32:23 10° S 18:33:36 26° S 18:33:36 26° S
Cosmos 1455 2.1 18:32:22 10° N 18:36:10 85° W 18:39:59 10° S
USA 229 DEB 3.6 18:35:43 10° SSW 18:42:30 72° ESE 18:47:09 23° NE
USA 229 3.6 18:35:49 10° SSW 18:42:37 71° ESE 18:47:12 23° NE
Abrixas 4.1 18:40:31 10° WNW 18:42:57 25° NNW 18:42:57 25° NNW
Cosmos 1184 Rocket 3.3 18:43:27 10° SSW 18:46:45 59° W 18:48:43 22° N
SJ-6B 3.0 18:44:43 10° S 18:48:48 79° WSW 18:52:58 10° NNW
Spot 2 Rocket 3.5 18:44:29 10° SSE 18:49:23 54° ENE 18:54:18 10° N
Cosmos 1862 Rocket 4.3 18:47:11 10° N 18:50:00 34° NNE 18:50:00 34° NNE
Orbus 7S? 4.5 18:47:22 10° NW 18:51:43 69° NE 19:00:10 15° SE
Iridium 4 Rocket 2.9 18:48:58 10° S 18:53:25 80° E 18:57:11 13° N
COSMO-SKYMED 1 4.5 18:51:28 10° N 18:55:14 29° WNW 18:58:59 10° SW
SL-19 R/B 4.2 18:50:58 10° SSE 18:56:49 80° ENE 19:02:25 10° NNW
Cosmos 2237 Rocket 4.4 18:54:17 10° W 18:58:29 21° NW 19:02:43 10° N
Cosmos 2369 Rocket 2.8 18:56:38 10° N 19:00:59 36° NE 19:00:59 36° NE
H-2A ROCKET BODY 4.0 18:45:47 10° WSW 19:05:41 36° SSW 19:09:18 21° SSE
SL-16 R/B 3.5 19:01:17 10° SW 19:06:31 38° WNW 19:11:46 10° N
FREGAT/IRIS 4.3 19:04:40 10° SSW 19:07:30 35° W 19:10:21 10° NNW
Resurs 01 Rocket 1.6 19:12:15 38° S 19:13:58 84° WSW 19:18:26 10° NNW
Cosmos 923 Rocket 4.1 19:09:42 10° SSW 19:14:54 75° WNW 19:16:59 37° N
Cosmos 1933 Rocket 3.6 19:11:53 10° S 19:16:19 80° W 19:16:31 77° NW
Cosmos 1680 Rocket 3.4 19:16:05 10° SSW 19:21:18 85° WNW 19:22:05 66° N
Cosmos 1655 Rocket 3.9 19:16:22 10° S 19:22:40 68° E 19:24:06 53° NE
Lacrosse 4 Rocket 2.5 19:20:41 10° NW 19:24:29 40° WSW 19:25:17 36° SW
CZ-4C R/B 4.0 19:19:04 10° NNW 19:23:28 24° NNE 19:23:28 24° NNE
Cosmos 1627 Rocket 4.4 19:18:52 10° S 19:25:04 88° W 19:31:14 10° N
FENGYUN 3A 4.0 19:25:06 10° S 19:30:23 61° W 19:35:44 10° NNW
Tiangong 1 4.3 19:28:34 10° SW 19:28:39 11° SW 19:28:39 11° SW
NOSS 3-1 (C) 3.7 19:28:25 10° SSW 19:32:51 52° S 19:32:51 52° S
USA 215 3.5 19:40:52 45° SSE 19:42:51 65° SW 19:49:23 10° NW
Cosmos 1943 4.1 19:38:29 10° SSW 19:41:55 39° SSW 19:41:55 39° SSW
ATLAS 3B R/B 4.4 19:42:51 10° NNW 19:45:53 18° N 19:45:53 18° N
Lacrosse 5 4.1 19:45:54 10° NNW 19:47:19 16° NNW 19:47:19 16° NNW
ATLAS 5 CENTAUR R/B 3.8 19:44:44 10° NNW 19:47:23 25° N 19:47:23 25° N
Cosmos 2026 Rocket 4.3 19:46:08 10° SSW 19:52:15 61° W 19:55:59 24° N
ALOS 4.3 19:57:55 10° SSW 20:01:47 25° W 20:05:39 10° NW
Cosmos 1943 Rocket 4.3 20:01:40 10° NNW 20:02:44 16° NNW 20:02:44 16° NNW
Cosmos 2369 Rocket 4.4 20:40:54 10° NW 20:42:51 19° WNW 20:42:51 19° WNW
